Time,TemperatureF,DewpointF,PressureIn,WindDirection,WindDirectionDegrees,WindSpeedMPH,WindSpeedGustMPH,Humidity,HourlyPrecipIn,Conditions,Clouds,dailyrainin,SoftwareType,DateUTC
2013-06-14 00:04:00,52.0,52.0,29.63,ESE,113,1.0,7.0,100,0.05,,,-99.99,Weather View 32 v60,2013-06-14 04:04:00,
2013-06-14 00:10:00,52.0,52.0,29.62,NNE,23,1.0,7.0,100,0.05,,,-99.99,Weather View 32 v60,2013-06-14 04:10:00,
2013-06-14 00:15:00,52.1,52.1,29.62,NNE,23,0.0,7.0,100,0.05,,,-99.99,Weather View 32 v60,2013-06-14 04:15:00,
2013-06-14 00:25:00,52.1,52.1,29.62,NE,45,1.0,7.0,100,0.06,,,-99.99,Weather View 32 v60,2013-06-14 04:25:00,
2013-06-14 00:29:00,52.1,52.1,29.62,NE,45,1.0,4.0,100,0.05,,,-99.99,Weather View 32 v60,2013-06-14 04:29:00,
2013-06-14 00:34:00,52.1,52.1,29.62,NE,45,1.0,5.0,100,0.05,,,-99.99,Weather View 32 v60,2013-06-14 04:34:00,
2013-06-14 00:40:00,52.2,52.2,29.62,NE,45,1.0,5.0,100,0.05,,,-99.99,Weather View 32 v60,2013-06-14 04:40:00,
2013-06-14 00:44:00,52.3,52.3,29.62,NNE,23,2.0,5.0,100,0.05,,,-99.99,Weather View 32 v60,2013-06-14 04:44:00,
2013-06-14 00:55:00,52.4,52.4,29.62,NE,45,4.0,9.0,100,0.05,,,-99.99,Weather View 32 v60,2013-06-14 04:55:00,
2013-06-14 01:00:00,52.5,52.5,29.62,NNE,23,3.0,9.0,100,0.06,,,-99.99,Weather View 32 v60,2013-06-14 05:00:00,
2013-06-14 01:09:00,52.5,52.5,29.62,SSE,158,0.0,9.0,100,0.05,,,-99.99,Weather View 32 v60,2013-06-14 05:09:00,
2013-06-14 01:15:00,52.6,52.6,29.62,NNE,23,0.0,9.0,100,0.05,,,-99.99,Weather View 32 v60,2013-06-14 05:15:00,
2013-06-14 01:24:00,52.6,52.6,29.62,South,180,1.0,9.0,100,0.05,,,-99.99,Weather View 32 v60,2013-06-14 05:24:00,
2013-06-14 01:30:00,52.6,52.6,29.61,NNE,23,2.0,9.0,100,0.05,,,-99.99,Weather View 32 v60,2013-06-14 05:30:00,
2013-06-14 01:40:00,52.5,52.5,29.61,NNE,23,4.0,9.0,100,0.05,,,-99.99,Weather View 32 v60,2013-06-14 05:40:00,
2013-06-14 01:50:00,52.5,52.5,29.60,NNE,23,0.0,9.0,100,0.05,,,-99.99,Weather View 32 v60,2013-06-14 05:50:00,
2013-06-14 01:57:00,52.5,52.5,29.60,NE,45,0.0,9.0,100,0.05,,,-99.99,Weather View 32 v60,2013-06-14 05:57:00,
2013-06-14 02:05:00,52.5,52.5,29.61,NNE,23,4.0,7.0,100,0.05,,,-99.99,Weather View 32 v60,2013-06-14 06:05:00,
2013-06-14 02:15:00,52.6,52.6,29.61,NE,45,1.0,7.0,100,0.05,,,-99.99,Weather View 32 v60,2013-06-14 06:15:00,
2013-06-14 02:24:00,52.5,52.5,29.60,NNE,23,2.0,6.0,100,0.05,,,-99.99,Weather View 32 v60,2013-06-14 06:24:00,
2013-06-14 02:30:00,52.4,52.4,29.60,South,180,2.0,6.0,100,0.06,,,-99.99,Weather View 32 v60,2013-06-14 06:30:00,
2013-06-14 02:40:00,52.3,52.3,29.59,NNE,23,1.0,6.0,100,0.06,,,-99.99,Weather View 32 v60,2013-06-14 06:40:00,
2013-06-14 02:49:00,52.3,52.3,29.60,NNE,23,1.0,6.0,100,0.05,,,-99.99,Weather View 32 v60,2013-06-14 06:49:00,
2013-06-14 02:55:00,52.2,52.2,29.60,South,180,0.0,6.0,100,0.06,,,-99.99,Weather View 32 v60,2013-06-14 06:55:00,
2013-06-14 03:00:00,52.2,52.2,29.60,SSE,158,0.0,6.0,100,0.05,,,-99.99,Weather View 32 v60,2013-06-14 07:00:00,
2013-06-14 03:05:00,52.2,52.2,29.60,NNE,23,0.0,6.0,100,0.06,,,-99.99,Weather View 32 v60,2013-06-14 07:05:00,
2013-06-14 03:15:00,52.1,52.1,29.60,South,180,0.0,6.0,100,0.06,,,-99.99,Weather View 32 v60,2013-06-14 07:15:00,
2013-06-14 03:24:00,52.2,52.2,29.60,NNE,23,3.0,5.0,100,0.06,,,-99.99,Weather View 32 v60,2013-06-14 07:24:00,
2013-06-14 03:30:00,52.2,52.2,29.60,SE,135,0.0,5.0,100,0.05,,,-99.99,Weather View 32 v60,2013-06-14 07:30:00,
2013-06-14 03:39:00,52.3,52.3,29.61,ENE,68,0.0,5.0,100,0.05,,,-99.99,Weather View 32 v60,2013-06-14 07:39:00,
2013-06-14 03:45:00,52.3,52.3,29.61,SE,135,0.0,5.0,100,0.06,,,-99.99,Weather View 32 v60,2013-06-14 07:45:00,
2013-06-14 03:55:00,52.4,52.4,29.61,East,90,0.0,5.0,100,0.06,,,-99.99,Weather View 32 v60,2013-06-14 07:55:00,
2013-06-14 04:04:00,52.5,52.5,29.61,SE,135,0.0,5.0,100,0.06,,,-99.99,Weather View 32 v60,2013-06-14 08:04:00,
2013-06-14 04:10:00,52.5,52.5,29.61,South,180,0.0,5.0,100,0.06,,,-99.99,Weather View 32 v60,2013-06-14 08:10:00,
2013-06-14 04:15:00,52.6,52.6,29.61,NNE,23,0.0,5.0,100,0.06,,,-99.99,Weather View 32 v60,2013-06-14 08:15:00,
2013-06-14 04:25:00,52.6,52.6,29.61,NE,45,2.0,5.0,100,0.06,,,-99.99,Weather View 32 v60,2013-06-14 08:25:00,
2013-06-14 04:35:00,52.7,52.7,29.61,NE,45,1.0,4.0,100,0.06,,,-99.99,Weather View 32 v60,2013-06-14 08:35:00,
2013-06-14 04:45:00,52.8,52.8,29.61,NE,45,3.0,4.0,100,0.06,,,-99.99,Weather View 32 v60,2013-06-14 08:45:00,
2013-06-14 04:54:00,52.9,52.9,29.62,NE,45,0.0,5.0,100,0.06,,,-99.99,Weather View 32 v60,2013-06-14 08:54:00,
2013-06-14 05:00:00,53.0,53.0,29.62,South,180,0.0,5.0,100,0.06,,,-99.99,Weather View 32 v60,2013-06-14 09:00:00,
2013-06-14 05:10:00,53.0,53.0,29.62,NNE,23,0.0,5.0,100,0.06,,,-99.99,Weather View 32 v60,2013-06-14 09:10:00,
2013-06-14 05:15:00,53.0,53.0,29.62,SSE,158,0.0,5.0,100,0.06,,,-99.99,Weather View 32 v60,2013-06-14 09:15:00,
2013-06-14 05:25:00,53.0,53.0,29.62,NE,45,4.0,6.0,100,0.06,,,-99.99,Weather View 32 v60,2013-06-14 09:25:00,
2013-06-14 05:34:00,52.9,52.9,29.62,NE,45,3.0,6.0,100,0.06,,,-99.99,Weather View 32 v60,2013-06-14 09:34:00,
2013-06-14 05:40:00,52.9,52.9,29.62,NE,45,1.0,6.0,100,0.06,,,-99.99,Weather View 32 v60,2013-06-14 09:40:00,
2013-06-14 05:49:00,52.8,52.8,29.63,NNE,23,0.0,6.0,100,0.06,,,-99.99,Weather View 32 v60,2013-06-14 09:49:00,
2013-06-14 05:55:00,52.8,52.8,29.63,SSE,158,0.0,6.0,100,0.06,,,-99.99,Weather View 32 v60,2013-06-14 09:55:00,
2013-06-14 06:00:00,52.8,52.8,29.63,NNE,23,0.0,6.0,100,0.07,,,-99.99,Weather View 32 v60,2013-06-14 10:00:00,
2013-06-14 06:09:00,52.8,52.8,29.63,South,180,1.0,6.0,100,0.07,,,-99.99,Weather View 32 v60,2013-06-14 10:09:00,
2013-06-14 06:15:00,52.8,52.8,29.63,South,180,0.0,6.0,100,0.06,,,-99.99,Weather View 32 v60,2013-06-14 10:15:00,
2013-06-14 06:25:00,52.7,52.7,29.63,SSE,158,0.0,6.0,100,0.06,,,-99.99,Weather View 32 v60,2013-06-14 10:25:00,
2013-06-14 06:30:00,52.7,52.7,29.64,South,180,1.0,5.0,100,0.07,,,-99.99,Weather View 32 v60,2013-06-14 10:30:00,
2013-06-14 06:39:00,52.7,52.7,29.64,South,180,1.0,4.0,100,0.07,,,-99.99,Weather View 32 v60,2013-06-14 10:39:00,
2013-06-14 06:45:00,52.6,52.6,29.64,South,180,0.0,4.0,100,0.06,,,-99.99,Weather View 32 v60,2013-06-14 10:45:00,
2013-06-14 06:54:00,52.6,52.6,29.65,SSE,158,0.0,4.0,100,0.06,,,-99.99,Weather View 32 v60,2013-06-14 10:54:00,
2013-06-14 07:00:00,52.7,52.7,29.65,SSE,158,1.0,4.0,100,0.06,,,-99.99,Weather View 32 v60,2013-06-14 11:00:00,
2013-06-14 07:10:00,52.7,52.7,29.65,South,180,0.0,4.0,100,0.06,,,-99.99,Weather View 32 v60,2013-06-14 11:10:00,
2013-06-14 07:19:00,52.7,52.7,29.66,SSE,158,0.0,4.0,100,0.06,,,-99.99,Weather View 32 v60,2013-06-14 11:19:00,
2013-06-14 07:25:00,52.7,52.7,29.66,South,180,1.0,4.0,100,0.07,,,-99.99,Weather View 32 v60,2013-06-14 11:25:00,
2013-06-14 07:30:00,52.7,52.7,29.66,SSE,158,0.0,4.0,100,0.06,,,-99.99,Weather View 32 v60,2013-06-14 11:30:00,
2013-06-14 07:39:00,52.7,52.7,29.66,SSE,158,0.0,4.0,100,0.06,,,-99.99,Weather View 32 v60,2013-06-14 11:39:00,
2013-06-14 07:45:00,52.6,52.6,29.66,South,180,0.0,4.0,100,0.07,,,-99.99,Weather View 32 v60,2013-06-14 11:45:00,
2013-06-14 07:54:00,52.6,52.6,29.67,South,180,0.0,4.0,100,0.07,,,-99.99,Weather View 32 v60,2013-06-14 11:54:00,
2013-06-14 08:00:00,52.6,52.6,29.66,South,180,0.0,4.0,100,0.06,,,-99.99,Weather View 32 v60,2013-06-14 12:00:00,
2013-06-14 08:10:00,52.7,52.7,29.67,SSE,158,1.0,4.0,100,0.06,,,-99.99,Weather View 32 v60,2013-06-14 12:10:00,
2013-06-14 08:15:00,52.8,52.8,29.67,SSE,158,0.0,4.0,100,0.06,,,-99.99,Weather View 32 v60,2013-06-14 12:15:00,
2013-06-14 08:25:00,52.8,52.8,29.67,SSE,158,0.0,4.0,100,0.06,,,-99.99,Weather View 32 v60,2013-06-14 12:25:00,
2013-06-14 08:34:00,52.8,52.8,29.66,NNE,23,0.0,4.0,100,0.06,,,-99.99,Weather View 32 v60,2013-06-14 12:34:00,
2013-06-14 08:40:00,52.9,52.9,29.66,South,180,0.0,4.0,100,0.06,,,-99.99,Weather View 32 v60,2013-06-14 12:40:00,
2013-06-14 08:50:00,53.0,53.0,29.66,NE,45,0.0,4.0,100,0.06,,,-99.99,Weather View 32 v60,2013-06-14 12:50:00,
2013-06-14 09:00:00,53.2,53.2,29.67,SSE,158,0.0,4.0,100,0.06,,,-99.99,Weather View 32 v60,2013-06-14 13:00:00,
2013-06-14 09:10:00,53.5,53.5,29.67,NNE,23,0.0,4.0,100,0.07,,,-99.99,Weather View 32 v60,2013-06-14 13:10:00,
2013-06-14 09:15:00,53.7,53.7,29.66,NE,45,1.0,4.0,100,0.06,,,-99.99,Weather View 32 v60,2013-06-14 13:15:00,
2013-06-14 09:25:00,53.8,53.8,29.67,South,180,0.0,4.0,100,0.06,,,-99.99,Weather View 32 v60,2013-06-14 13:25:00,
2013-06-14 09:34:00,54.0,54.0,29.66,NNE,23,0.0,4.0,100,0.06,,,-99.99,Weather View 32 v60,2013-06-14 13:34:00,
2013-06-14 09:40:00,54.1,54.1,29.66,NNE,23,1.0,4.0,100,0.06,,,-99.99,Weather View 32 v60,2013-06-14 13:40:00,
2013-06-14 09:50:00,54.4,54.4,29.66,NNE,23,3.0,4.0,100,0.06,,,-99.99,Weather View 32 v60,2013-06-14 13:50:00,
2013-06-14 10:00:00,54.8,54.8,29.66,NE,45,1.0,4.0,100,0.06,,,-99.99,Weather View 32 v60,2013-06-14 14:00:00,
2013-06-14 10:10:00,55.1,55.1,29.66,South,180,0.0,4.0,100,0.05,,,-99.99,Weather View 32 v60,2013-06-14 14:10:00,
2013-06-14 10:15:00,55.3,55.3,29.65,NNE,23,0.0,4.0,100,0.06,,,-99.99,Weather View 32 v60,2013-06-14 14:15:00,
2013-06-14 10:25:00,56.0,56.0,29.66,ESE,113,0.0,4.0,100,0.06,,,-99.99,Weather View 32 v60,2013-06-14 14:25:00,
2013-06-14 10:30:00,56.3,56.3,29.66,ESE,113,1.0,4.0,100,0.05,,,-99.99,Weather View 32 v60,2013-06-14 14:30:00,
2013-06-14 10:39:00,56.9,56.9,29.66,South,180,0.0,5.0,100,0.06,,,-99.99,Weather View 32 v60,2013-06-14 14:39:00,
2013-06-14 10:45:00,57.2,57.2,29.66,ENE,68,1.0,5.0,100,0.06,,,-99.99,Weather View 32 v60,2013-06-14 14:45:00,
2013-06-14 10:54:00,58.0,58.0,29.66,East,90,1.0,5.0,100,0.06,,,-99.99,Weather View 32 v60,2013-06-14 14:54:00,
2013-06-14 11:00:00,58.5,58.2,29.66,ENE,68,4.0,5.0,99,0.06,,,-99.99,Weather View 32 v60,2013-06-14 15:00:00,
2013-06-14 11:10:00,59.1,58.2,29.66,East,90,0.0,5.0,97,0.06,,,-99.99,Weather View 32 v60,2013-06-14 15:10:00,
2013-06-14 11:15:00,59.4,58.5,29.66,East,90,0.0,5.0,97,0.06,,,-99.99,Weather View 32 v60,2013-06-14 15:15:00,
2013-06-14 11:25:00,59.6,58.2,29.67,SE,135,0.0,5.0,95,0.06,,,-99.99,Weather View 32 v60,2013-06-14 15:25:00,
2013-06-14 11:30:00,59.8,58.1,29.67,South,180,0.0,5.0,94,0.06,,,-99.99,Weather View 32 v60,2013-06-14 15:30:00,
2013-06-14 11:39:00,60.3,58.0,29.67,ESE,113,1.0,5.0,92,0.06,,,-99.99,Weather View 32 v60,2013-06-14 15:39:00,
2013-06-14 11:45:00,60.7,58.0,29.67,South,180,1.0,5.0,91,0.06,,,-99.99,Weather View 32 v60,2013-06-14 15:45:00,
2013-06-14 11:55:00,61.1,57.8,29.67,NE,45,1.0,5.0,89,0.06,,,-99.99,Weather View 32 v60,2013-06-14 15:55:00,
2013-06-14 12:02:00,61.4,58.1,29.67,NE,45,1.0,5.0,89,0.06,,,-99.99,Weather View 32 v60,2013-06-14 16:02:00,
2013-06-14 12:10:00,62.6,59.0,29.67,NNE,23,1.0,5.0,88,0.06,,,-99.99,Weather View 32 v60,2013-06-14 16:10:00,
2013-06-14 12:15:00,62.7,58.4,29.67,ESE,113,1.0,5.0,86,0.05,,,-99.99,Weather View 32 v60,2013-06-14 16:15:00,
2013-06-14 12:25:00,62.7,58.1,29.67,SE,135,0.0,5.0,85,0.05,,,-99.99,Weather View 32 v60,2013-06-14 16:25:00,
2013-06-14 12:30:00,62.4,57.5,29.67,East,90,2.0,5.0,84,0.05,,,-99.99,Weather View 32 v60,2013-06-14 16:30:00,
2013-06-14 12:39:00,62.6,58.0,29.67,South,180,2.0,4.0,85,0.05,,,-99.99,Weather View 32 v60,2013-06-14 16:39:00,
2013-06-14 12:45:00,63.0,58.1,29.67,SSE,158,0.0,4.0,84,0.04,,,-99.99,Weather View 32 v60,2013-06-14 16:45:00,
2013-06-14 12:55:00,63.5,58.2,29.67,SE,135,0.0,4.0,83,0.04,,,-99.99,Weather View 32 v60,2013-06-14 16:55:00,
2013-06-14 13:03:00,63.7,58.4,29.67,SSE,158,1.0,4.0,83,0.04,,,-99.99,Weather View 32 v60,2013-06-14 17:03:00,
2013-06-14 13:09:00,63.9,57.9,29.67,ENE,68,4.0,5.0,81,0.04,,,-99.99,Weather View 32 v60,2013-06-14 17:09:00,
2013-06-14 13:15:00,64.0,58.4,29.67,SE,135,1.0,5.0,82,0.04,,,-99.99,Weather View 32 v60,2013-06-14 17:15:00,
2013-06-14 13:24:00,64.5,58.2,29.67,South,180,3.0,5.0,80,0.04,,,-99.99,Weather View 32 v60,2013-06-14 17:24:00,
2013-06-14 13:30:00,64.5,58.5,29.66,ESE,113,1.0,5.0,81,0.04,,,-99.99,Weather View 32 v60,2013-06-14 17:30:00,
2013-06-14 13:40:00,64.7,58.0,29.66,ENE,68,3.0,5.0,79,0.04,,,-99.99,Weather View 32 v60,2013-06-14 17:40:00,
2013-06-14 13:50:00,65.8,58.7,29.66,SSE,158,1.0,7.0,78,0.03,,,-99.99,Weather View 32 v60,2013-06-14 17:50:00,
2013-06-14 14:00:00,66.3,58.5,29.66,NNE,23,2.0,9.0,76,0.04,,,-99.99,Weather View 32 v60,2013-06-14 18:00:00,
2013-06-14 14:10:00,66.8,59.3,29.66,NNE,23,1.0,9.0,77,0.03,,,-99.99,Weather View 32 v60,2013-06-14 18:10:00,
2013-06-14 14:15:00,67.2,59.7,29.66,East,90,2.0,9.0,77,0.04,,,-99.99,Weather View 32 v60,2013-06-14 18:15:00,
2013-06-14 14:25:00,68.4,60.1,29.65,SSE,158,6.0,9.0,75,0.03,,,-99.99,Weather View 32 v60,2013-06-14 18:25:00,
2013-06-14 14:30:00,68.6,60.0,29.65,NE,45,0.0,9.0,74,0.03,,,-99.99,Weather View 32 v60,2013-06-14 18:30:00,
2013-06-14 14:39:00,69.2,60.5,29.65,East,90,0.0,9.0,74,0.03,,,-99.99,Weather View 32 v60,2013-06-14 18:39:00,
2013-06-14 14:45:00,69.3,59.9,29.65,NNE,23,0.0,9.0,72,0.03,,,-99.99,Weather View 32 v60,2013-06-14 18:45:00,
2013-06-14 14:54:00,69.1,59.3,29.64,NE,45,0.0,9.0,71,0.03,,,-99.99,Weather View 32 v60,2013-06-14 18:54:00,
2013-06-14 15:00:00,69.1,59.3,29.64,ENE,68,0.0,8.0,71,0.03,,,-99.99,Weather View 32 v60,2013-06-14 19:00:00,
2013-06-14 15:10:00,69.2,59.8,29.64,ESE,113,0.0,8.0,72,0.03,,,-99.99,Weather View 32 v60,2013-06-14 19:10:00,
2013-06-14 15:15:00,69.5,59.7,29.64,East,90,0.0,8.0,71,0.03,,,-99.99,Weather View 32 v60,2013-06-14 19:15:00,
2013-06-14 15:25:00,69.8,60.3,29.64,SE,135,0.0,8.0,72,0.03,,,-99.99,Weather View 32 v60,2013-06-14 19:25:00,
2013-06-14 15:35:00,69.9,59.6,29.64,NNE,23,0.0,8.0,70,0.02,,,-99.99,Weather View 32 v60,2013-06-14 19:35:00,
2013-06-14 15:45:00,70.3,59.2,29.64,SE,135,0.0,6.0,68,0.03,,,-99.99,Weather View 32 v60,2013-06-14 19:45:00,
2013-06-14 15:55:00,70.6,59.5,29.63,East,90,0.0,6.0,68,0.02,,,-99.99,Weather View 32 v60,2013-06-14 19:55:00,
2013-06-14 16:05:00,71.1,60.4,29.63,ESE,113,0.0,6.0,69,0.03,,,-99.99,Weather View 32 v60,2013-06-14 20:05:00,
2013-06-14 16:15:00,71.2,59.6,29.62,SE,135,0.0,5.0,67,0.02,,,-99.99,Weather View 32 v60,2013-06-14 20:15:00,
2013-06-14 16:24:00,71.0,59.0,29.62,ENE,68,0.0,5.0,66,0.02,,,-99.99,Weather View 32 v60,2013-06-14 20:24:00,
2013-06-14 16:30:00,71.0,59.9,29.63,East,90,0.0,5.0,68,0.02,,,-99.99,Weather View 32 v60,2013-06-14 20:30:00,
2013-06-14 16:35:00,71.1,58.7,29.62,NE,45,0.0,5.0,65,0.03,,,-99.99,Weather View 32 v60,2013-06-14 20:35:00,
2013-06-14 16:45:00,71.3,59.3,29.62,NNE,23,0.0,4.0,66,0.02,,,-99.99,Weather View 32 v60,2013-06-14 20:45:00,
2013-06-14 16:54:00,71.5,58.6,29.62,SSE,158,0.0,4.0,64,0.02,,,-99.99,Weather View 32 v60,2013-06-14 20:54:00,
2013-06-14 17:00:00,71.5,58.6,29.62,NNE,23,0.0,4.0,64,0.02,,,-99.99,Weather View 32 v60,2013-06-14 21:00:00,
2013-06-14 17:05:00,71.5,58.6,29.62,East,90,0.0,5.0,64,0.02,,,-99.99,Weather View 32 v60,2013-06-14 21:05:00,
2013-06-14 17:15:00,71.3,58.5,29.62,NE,45,0.0,5.0,64,0.02,,,-99.99,Weather View 32 v60,2013-06-14 21:15:00,
2013-06-14 17:25:00,70.9,59.4,29.62,East,90,0.0,5.0,67,0.02,,,-99.99,Weather View 32 v60,2013-06-14 21:25:00,
2013-06-14 17:30:00,70.7,60.0,29.62,SE,135,0.0,5.0,69,0.02,,,-99.99,Weather View 32 v60,2013-06-14 21:30:00,
2013-06-14 17:39:00,70.3,60.0,29.62,SSE,158,0.0,5.0,70,0.01,,,-99.99,Weather View 32 v60,2013-06-14 21:39:00,
2013-06-14 17:45:00,70.1,60.2,29.62,SSE,158,0.0,5.0,71,0.02,,,-99.99,Weather View 32 v60,2013-06-14 21:45:00,
2013-06-14 17:55:00,69.8,59.9,29.62,SSE,158,0.0,5.0,71,0.02,,,-99.99,Weather View 32 v60,2013-06-14 21:55:00,
2013-06-14 18:04:00,69.4,60.0,29.63,SSE,158,0.0,4.0,72,0.01,,,-99.99,Weather View 32 v60,2013-06-14 22:04:00,
2013-06-14 18:10:00,69.2,60.1,29.63,SSE,158,0.0,1.0,73,0.01,,,-99.99,Weather View 32 v60,2013-06-14 22:10:00,
2013-06-14 18:15:00,69.1,60.4,29.63,SSE,158,0.0,1.0,74,0.01,,,-99.99,Weather View 32 v60,2013-06-14 22:15:00,
2013-06-14 18:24:00,68.8,59.8,29.63,SSE,158,0.0,1.0,73,0.01,,,-99.99,Weather View 32 v60,2013-06-14 22:24:00,
2013-06-14 18:30:00,68.7,59.7,29.63,South,180,0.0,1.0,73,0.02,,,-99.99,Weather View 32 v60,2013-06-14 22:30:00,
2013-06-14 18:40:00,68.3,59.7,29.63,SSE,158,0.0,1.0,74,0.02,,,-99.99,Weather View 32 v60,2013-06-14 22:40:00,
2013-06-14 18:49:00,67.9,59.3,29.63,SSE,158,0.0,0.0,74,0.01,,,-99.99,Weather View 32 v60,2013-06-14 22:49:00,
2013-06-14 18:55:00,67.7,59.5,29.63,SSE,158,0.0,0.0,75,0.01,,,-99.99,Weather View 32 v60,2013-06-14 22:55:00,
2013-06-14 19:00:00,67.5,59.6,29.64,SSE,158,0.0,0.0,76,0.01,,,-99.99,Weather View 32 v60,2013-06-14 23:00:00,
2013-06-14 19:06:00,67.2,59.4,29.64,South,180,0.0,0.0,76,0.01,,,-99.99,Weather View 32 v60,2013-06-14 23:06:00,
2013-06-14 19:15:00,66.9,60.2,29.64,South,180,0.0,0.0,79,0.01,,,-99.99,Weather View 32 v60,2013-06-14 23:15:00,
2013-06-14 19:25:00,66.5,60.1,29.64,NE,45,0.0,1.0,80,0.01,,,-99.99,Weather View 32 v60,2013-06-14 23:25:00,
2013-06-14 19:34:00,66.0,58.9,29.63,South,180,0.0,1.0,78,0.00,,,-99.99,Weather View 32 v60,2013-06-14 23:34:00,
2013-06-14 19:40:00,65.8,59.1,29.63,South,180,0.0,1.0,79,0.01,,,-99.99,Weather View 32 v60,2013-06-14 23:40:00,
2013-06-14 19:50:00,65.4,59.0,29.64,South,180,0.0,1.0,80,0.01,,,-99.99,Weather View 32 v60,2013-06-14 23:50:00,
2013-06-14 20:00:00,65.0,59.0,29.64,South,180,0.0,1.0,81,0.01,,,-99.99,Weather View 32 v60,2013-06-15 00:00:00,
2013-06-14 20:07:00,64.9,59.3,29.64,SSE,158,0.0,1.0,82,0.01,,,-99.99,Weather View 32 v60,2013-06-15 00:07:00,
2013-06-14 20:15:00,64.7,59.1,29.64,SSE,158,0.0,1.0,82,0.01,,,-99.99,Weather View 32 v60,2013-06-15 00:15:00,
2013-06-14 20:25:00,64.3,59.0,29.65,SSE,158,0.0,1.0,83,0.01,,,-99.99,Weather View 32 v60,2013-06-15 00:25:00,
2013-06-14 20:34:00,63.9,59.0,29.65,South,180,0.0,1.0,84,0.01,,,-99.99,Weather View 32 v60,2013-06-15 00:34:00,
2013-06-14 20:40:00,63.6,58.7,29.65,South,180,0.0,1.0,84,0.00,,,-99.99,Weather View 32 v60,2013-06-15 00:40:00,
2013-06-14 20:45:00,63.4,58.5,29.65,South,180,0.0,1.0,84,0.00,,,-99.99,Weather View 32 v60,2013-06-15 00:45:00,
2013-06-14 20:54:00,62.9,58.0,29.65,South,180,0.0,0.0,84,0.00,,,-99.99,Weather View 32 v60,2013-06-15 00:54:00,
2013-06-14 21:00:00,62.7,57.8,29.66,South,180,0.0,0.0,84,0.00,,,-99.99,Weather View 32 v60,2013-06-15 01:00:00,
2013-06-14 21:08:00,62.4,57.8,29.66,South,180,0.0,0.0,85,0.00,,,-99.99,Weather View 32 v60,2013-06-15 01:08:00,
2013-06-14 21:15:00,62.1,57.5,29.66,South,180,0.0,0.0,85,0.00,,,-99.99,Weather View 32 v60,2013-06-15 01:15:00,
2013-06-14 21:24:00,62.0,58.1,29.66,South,180,0.0,0.0,87,0.00,,,-99.99,Weather View 32 v60,2013-06-15 01:24:00,
2013-06-14 21:29:00,61.9,57.7,29.66,South,180,0.0,0.0,86,0.00,,,-99.99,Weather View 32 v60,2013-06-15 01:29:00,
2013-06-14 21:40:00,61.7,57.5,29.67,South,180,0.0,0.0,86,0.00,,,-99.99,Weather View 32 v60,2013-06-15 01:40:00,
2013-06-14 21:45:00,61.6,57.7,29.67,South,180,0.0,0.0,87,0.00,,,-99.99,Weather View 32 v60,2013-06-15 01:45:00,
2013-06-14 21:54:00,61.3,57.7,29.67,South,180,0.0,0.0,88,0.00,,,-99.99,Weather View 32 v60,2013-06-15 01:54:00,
2013-06-14 22:00:00,61.2,57.3,29.67,South,180,0.0,0.0,87,0.00,,,-99.99,Weather View 32 v60,2013-06-15 02:00:00,
2013-06-14 22:08:00,61.0,57.4,29.67,SSE,158,0.0,0.0,88,0.00,,,-99.99,Weather View 32 v60,2013-06-15 02:08:00,
2013-06-14 22:15:00,60.7,57.4,29.67,South,180,0.0,0.0,89,0.00,,,-99.99,Weather View 32 v60,2013-06-15 02:15:00,
2013-06-14 22:25:00,60.3,57.0,29.67,East,90,0.0,1.0,89,0.00,,,-99.99,Weather View 32 v60,2013-06-15 02:25:00,
2013-06-14 22:34:00,60.1,57.1,29.67,South,180,0.0,1.0,90,0.00,,,-99.99,Weather View 32 v60,2013-06-15 02:34:00,
2013-06-14 22:40:00,59.9,57.0,29.67,SSE,158,0.0,1.0,90,0.00,,,-99.99,Weather View 32 v60,2013-06-15 02:40:00,
2013-06-14 22:45:00,59.8,56.9,29.68,SE,135,0.0,1.0,90,0.00,,,-99.99,Weather View 32 v60,2013-06-15 02:45:00,
2013-06-14 22:55:00,59.5,56.6,29.68,East,90,0.0,2.0,90,0.00,,,-99.99,Weather View 32 v60,2013-06-15 02:55:00,
2013-06-14 23:05:00,59.3,56.7,29.68,East,90,0.0,2.0,91,0.00,,,-99.99,Weather View 32 v60,2013-06-15 03:05:00,
2013-06-14 23:15:00,59.2,56.6,29.68,SE,135,0.0,3.0,91,0.00,,,-99.99,Weather View 32 v60,2013-06-15 03:15:00,
2013-06-14 23:24:00,59.2,56.6,29.69,SE,135,0.0,3.0,91,0.00,,,-99.99,Weather View 32 v60,2013-06-15 03:24:00,
2013-06-14 23:29:00,59.1,56.2,29.69,SE,135,0.0,3.0,90,0.00,,,-99.99,Weather View 32 v60,2013-06-15 03:29:00,
2013-06-14 23:40:00,59.0,56.1,29.69,SSE,158,0.0,3.0,90,0.00,,,-99.99,Weather View 32 v60,2013-06-15 03:40:00,
2013-06-14 23:45:00,59.0,56.4,29.70,SSE,158,0.0,3.0,91,0.00,,,-99.99,Weather View 32 v60,2013-06-15 03:45:00,
2013-06-14 23:54:00,58.8,55.9,29.70,SSE,158,0.0,3.0,90,0.00,,,-99.99,Weather View 32 v60,2013-06-15 03:54:00,